Weather History for Aitkin, MN

Change the Weather History Date:

Thursday, June 13, 2013

  Actual Average Record
Temperature  
Mean Temperature 60 °F -  
Max Temperature 75 °F 77 °F 87 °F (1992)
Min Temperature 46 °F 51 °F 39 °F (1962)
Degree Days  
Heating Degree Days 4    
Growing Degree Days 10 (Base 50)    
Moisture  
Dew Point 47 °F    
Average Humidity 59    
Maximum Humidity 87    
Minimum Humidity 36    
Precipitation  
Precipitation 0.00 in - - ()
Sea Level Pressure  
Sea Level Pressure 30.08 in    
Wind  
Wind Speed 3 mph (NE)    
Max Wind Speed 9 mph    
Max Gust Speed -    
Visibility 9 miles    
Events      
Averages and records for this station are not official NWS values.
T = Trace of Precipitation, MM = Missing Value Source: NWS Daily Summary

Daily Weather History Graph

Daily Weather History Graph

Search for Another Location

Airport:

Trip Planner

Search our weather history database for the weather conditions in past years. The results will help you decide how hot, cold, wet, or windy it might be!

Date:

Astronomy

Jun. 13, 2013 Rise Set
Actual Time 5:21 AM CDT 9:08 PM CDT
Civil Twilight 4:41 AM CDT 9:47 PM CDT
Nautical Twilight 3:49 AM CDT 10:41 PM CDT
Astronomical Twilight 2:33 AM CDT 11:57 PM CDT
Moon 10:12 AM CDT (6/13) 11:59 PM CDT (6/13)
Length of Visible Light 17h 05m
Length of Day
15h 47m
Waxing Crescent, 22% of the Moon is Illuminated
Jun 13
Waxing Crescent
Jun 16
First Quarter
Jun 23
Full
Jun 29
Last Quarter
Jul 8
New

Hourly Weather History & Observations

Time (CDT) Temp. Dew Point Humidity Pressure Visibility Wind Dir Wind Speed Gust Speed Precip Events Conditions
12:13 AM 53.6 °F 44.6 °F 72% 29.99 in 10.0 mi NW 3.5 mph - N/A   Clear
12:32 AM 53.6 °F 44.6 °F 72% 29.99 in 10.0 mi Calm Calm - N/A   Clear
12:53 AM 51.8 °F 44.6 °F 76% 29.99 in 10.0 mi Calm Calm - N/A   Clear
1:13 AM 51.8 °F 44.6 °F 76% 30.00 in 10.0 mi Calm Calm - N/A   Clear
1:32 AM 51.8 °F 44.6 °F 76% 30.00 in 10.0 mi Calm Calm - N/A   Clear
1:53 AM 51.8 °F 44.6 °F 76% 30.01 in 10.0 mi Calm Calm - N/A   Clear
2:13 AM 51.8 °F 44.6 °F 76% 30.01 in 10.0 mi Calm Calm - N/A   Clear
2:32 AM 51.8 °F 44.6 °F 76% 30.02 in 10.0 mi Calm Calm - N/A   Clear
2:53 AM 50.0 °F 42.8 °F 76% 30.02 in 10.0 mi Calm Calm - N/A   Clear
3:13 AM 48.2 °F 42.8 °F 82% 30.03 in 10.0 mi Calm Calm - N/A   Clear
3:32 AM 48.2 °F 42.8 °F 82% 30.04 in 2.0 mi Calm Calm - N/A   Haze
3:53 AM 46.4 °F 42.8 °F 87% 30.05 in 5.0 mi Calm Calm - N/A   Haze
4:13 AM 46.4 °F 41.0 °F 81% 30.05 in 4.0 mi Calm Calm - N/A   Haze
4:32 AM 46.4 °F 41.0 °F 81% 30.06 in 5.0 mi Calm Calm - N/A   Haze
4:53 AM 46.4 °F 39.2 °F 76% 30.06 in 2.0 mi Calm Calm - N/A   Haze
5:13 AM 46.4 °F 41.0 °F 81% 30.07 in 5.0 mi Calm Calm - N/A   Haze
5:32 AM 46.4 °F 39.2 °F 76% 30.07 in 1.5 mi Calm Calm - N/A   Haze
5:53 AM 46.4 °F 41.0 °F 81% 30.08 in 10.0 mi Calm Calm - N/A   Clear
6:13 AM 46.4 °F 39.2 °F 76% 30.08 in 10.0 mi Calm Calm - N/A   Clear
6:32 AM 50.0 °F 44.6 °F 82% 30.09 in 10.0 mi Calm Calm - N/A   Clear
6:53 AM 53.6 °F 48.2 °F 82% 30.10 in 10.0 mi NNW 3.5 mph - N/A   Clear
7:13 AM 57.2 °F 50.0 °F 77% 30.10 in 10.0 mi North 4.6 mph - N/A   Clear
7:32 AM 57.2 °F 50.0 °F 77% 30.09 in 10.0 mi NNE 5.8 mph - N/A   Clear
7:53 AM 59.0 °F 50.0 °F 72% 30.09 in 10.0 mi North 6.9 mph - N/A   Clear
8:12 AM 60.8 °F 50.0 °F 68% 30.09 in 10.0 mi NNE 8.1 mph - N/A   Clear
8:32 AM 60.8 °F 50.0 °F 68% 30.08 in 10.0 mi NE 8.1 mph - N/A   Clear
8:53 AM 62.6 °F 51.8 °F 68% 30.08 in 10.0 mi NE 5.8 mph - N/A   Clear
9:12 AM 64.4 °F 51.8 °F 64% 30.09 in 10.0 mi North 6.9 mph - N/A   Clear
9:32 AM 64.4 °F 51.8 °F 64% 30.10 in 10.0 mi North 3.5 mph - N/A   Clear
9:53 AM 64.4 °F 51.8 °F 64% 30.10 in 10.0 mi North 4.6 mph - N/A   Clear
10:12 AM 66.2 °F 50.0 °F 56% 30.11 in 10.0 mi NNW 3.5 mph - N/A   Clear
10:32 AM 66.2 °F 50.0 °F 56% 30.11 in 10.0 mi NW 5.8 mph - N/A   Scattered Clouds
10:53 AM 66.2 °F 48.2 °F 52% 30.11 in 10.0 mi North 9.2 mph - N/A   Clear
11:12 AM 68.0 °F 50.0 °F 52% 30.12 in 10.0 mi Calm Calm - N/A   Clear
11:32 AM 68.0 °F 50.0 °F 52% 30.12 in 10.0 mi NNW 4.6 mph - N/A   Clear
11:52 AM 69.8 °F 48.2 °F 46% 30.12 in 10.0 mi NE 4.6 mph - N/A   Clear
12:12 PM 69.8 °F 48.2 °F 46% 30.12 in 10.0 mi NNE 8.1 mph - N/A   Clear
12:33 PM 71.6 °F 48.2 °F 43% 30.12 in 10.0 mi North 8.1 mph - N/A   Clear
12:52 PM 71.6 °F 48.2 °F 43% 30.12 in 10.0 mi North 6.9 mph - N/A   Clear
1:12 PM 71.6 °F 48.2 °F 43% 30.11 in 10.0 mi North 8.1 mph - N/A   Clear
1:33 PM 73.4 °F 48.2 °F 41% 30.11 in 10.0 mi ENE 9.2 mph - N/A   Clear
1:52 PM 73.4 °F 48.2 °F 41% 30.11 in 10.0 mi North 8.1 mph - N/A   Clear
2:12 PM 73.4 °F 48.2 °F 41% 30.11 in 10.0 mi NE 3.5 mph - N/A   Scattered Clouds
2:33 PM 73.4 °F 48.2 °F 41% 30.11 in 10.0 mi North 8.1 mph - N/A   Scattered Clouds
2:52 PM 73.4 °F 48.2 °F 41% 30.11 in 10.0 mi ENE 8.1 mph - N/A   Scattered Clouds
3:12 PM 73.4 °F 48.2 °F 41% 30.10 in 10.0 mi Calm Calm - N/A   Clear
3:33 PM 75.2 °F 48.2 °F 38% 30.10 in 10.0 mi NNE 6.9 mph - N/A   Scattered Clouds
3:52 PM 75.2 °F 48.2 °F 38% 30.09 in 10.0 mi ENE 3.5 mph - N/A   Scattered Clouds
4:12 PM 75.2 °F 48.2 °F 38% 30.10 in 10.0 mi ENE 6.9 mph - N/A   Scattered Clouds
4:33 PM 75.2 °F 48.2 °F 38% 30.08 in 10.0 mi SE 3.5 mph - N/A   Scattered Clouds
4:52 PM 75.2 °F 48.2 °F 38% 30.08 in 10.0 mi ESE 4.6 mph - N/A   Clear
5:12 PM 75.2 °F 48.2 °F 38% 30.08 in 10.0 mi East 5.8 mph - N/A   Clear
5:33 PM 75.2 °F 48.2 °F 38% 30.08 in 10.0 mi Calm Calm - N/A   Clear
5:52 PM 75.2 °F 48.2 °F 38% 30.07 in 10.0 mi Calm Calm - N/A   Clear
6:12 PM 75.2 °F 48.2 °F 38% 30.07 in 10.0 mi East 6.9 mph - N/A   Scattered Clouds
6:33 PM 75.2 °F 46.4 °F 36% 30.07 in 10.0 mi East 4.6 mph - N/A   Clear
6:52 PM 75.2 °F 46.4 °F 36% 30.07 in 10.0 mi ESE 6.9 mph - N/A   Clear
7:12 PM 75.2 °F 46.4 °F 36% 30.07 in 10.0 mi ESE 3.5 mph - N/A   Clear
7:33 PM 73.4 °F 48.2 °F 41% 30.07 in 10.0 mi Calm Calm - N/A   Clear
7:52 PM 73.4 °F 46.4 °F 38% 30.08 in 10.0 mi East 3.5 mph - N/A   Clear
8:12 PM 71.6 °F 44.6 °F 38% 30.07 in 10.0 mi ESE 6.9 mph - N/A   Clear
8:33 PM 69.8 °F 44.6 °F 40% 30.08 in 10.0 mi ESE 4.6 mph - N/A   Clear
8:52 PM 68.0 °F 44.6 °F 43% 30.08 in 10.0 mi ESE 3.5 mph - N/A   Clear
9:12 PM 66.2 °F 44.6 °F 46% 30.08 in 10.0 mi Calm Calm - N/A   Clear
9:33 PM 64.4 °F 44.6 °F 49% 30.08 in 10.0 mi Calm Calm - N/A   Clear
9:52 PM 59.0 °F 48.2 °F 67% 30.09 in 10.0 mi Calm Calm - N/A   Clear
10:12 PM 57.2 °F 48.2 °F 72% 30.10 in 10.0 mi Calm Calm - N/A   Clear
10:33 PM 55.4 °F 48.2 °F 77% 30.10 in 10.0 mi Calm Calm - N/A   Clear
10:53 PM 59.0 °F 46.4 °F 63% 30.10 in 10.0 mi ESE 3.5 mph - N/A   Clear
11:12 PM 59.0 °F 46.4 °F 63% 30.10 in 10.0 mi SE 3.5 mph - N/A   Clear
11:33 PM 57.2 °F 46.4 °F 67% 30.10 in 10.0 mi East 3.5 mph - N/A   Clear
11:52 PM 55.4 °F 44.6 °F 67% 30.09 in 10.0 mi Calm Calm - N/A   Clear